CW1075 Weather Reports


Display with metric or nautical units.
time (UTC)temp
F
wind
direction
speed
MPH
gust
MPH
rain 1hr
in
rain 24hr
in
rain mn
in
humidity
%
barometer
mb
20260507114556 58 360 0.0 0.0 0.00 0.00 0.00 72 1012.7
20260507113050 58 360 0.0 0.0 0.00 0.00 0.00 72 1012.7
20260507111557 58 360 0.0 0.0 0.00 0.00 0.00 71 1012.7
20260507110044 59 360 0.0 0.0 0.00 0.00 0.00 70 1012.7
20260507104543 59 360 0.0 0.0 0.00 0.00 0.00 70 1012.6
20260507103040 59 360 0.0 0.0 0.00 0.00 0.00 71 1012.7
20260507101538 59 360 0.0 0.0 0.00 0.00 0.00 69 1012.7
20260507100035 60 360 0.0 0.0 0.00 0.00 0.00 68 1012.6
20260507094534 60 360 0.0 0.0 0.00 0.00 0.00 67 1012.6
20260507093040 60 360 0.0 0.0 0.00 0.00 0.00 68 1012.6
20260507091533 61 360 0.0 0.0 0.00 0.00 0.00 67 1012.6
20260507090028 60 360 0.0 0.0 0.00 0.00 0.00 68 1012.6
20260507084528 61 360 0.0 0.0 0.00 0.00 0.00 67 1012.5
20260507083057 61 360 0.0 0.0 0.00 0.00 0.00 67 1012.4
20260507081556 61 360 0.0 0.0 0.00 0.00 0.00 66 1012.4
20260507080053 61 360 0.0 0.0 0.00 0.00 0.00 66 1012.3
20260507074557 62 360 0.0 0.0 0.00 0.00 0.00 66 1012.4
20260507073053 62 360 0.0 0.0 0.00 0.00 0.00 65 1012.1
20260507071552 62 360 0.0 0.0 0.00 0.00 0.00 65 1012.1
20260507070052 63 360 0.0 0.0 0.00 0.00 0.00 62 1011.9
20260507064606 64 360 0.0 0.0 0.00 0.00 0.00 60 1012.1
20260507063053 64 360 0.0 0.0 0.00 0.00 0.00 59 1011.9
20260507061549 64 360 0.0 0.0 0.00 0.00 0.00 58 1011.9
20260507060049 65 360 0.0 0.0 0.00 0.00 0.00 57 1011.7
20260507054550 65 360 0.0 0.0 0.00 0.00 0.00 56 1011.5
20260507053046 66 360 0.0 0.0 0.00 0.00 0.00 55 1011.5
20260507051545 66 360 0.0 0.0 0.00 0.00 0.00 55 1011.4
20260507050043 67 360 0.0 0.0 0.00 0.00 0.00 54 1011.4
20260507044543 67 360 0.0 0.0 0.00 0.00 0.00 54 1011.3
20260507043042 68 360 0.0 0.0 0.00 0.00 0.00 53 1011.1
20260507041551 68 360 0.0 0.0 0.00 0.00 0.00 51 1011.0
20260507040011 69 360 0.0 0.0 0.00 0.00 0.00 50 1010.9
20260507034513 69 360 0.0 0.0 0.00 0.00 0.00 50 1010.7
20260507033011 70 360 0.0 0.0 0.00 0.00 0.00 49 1010.4
20260507031506 70 360 0.0 0.0 0.00 0.00 0.00 48 1010.2
20260507030005 72 360 0.0 0.0 0.00 0.00 0.00 46 1010.1
20260507024506 72 360 0.0 0.0 0.00 0.00 0.00 46 1009.9
20260507023004 73 360 0.0 0.0 0.00 0.00 0.00 45 1009.9
20260507021502 74 360 0.0 0.0 0.00 0.00 0.00 44 1009.7
20260507020003 75 360 0.0 0.0 0.00 0.00 0.00 42 1009.7
20260507014506 76 360 0.0 0.0 0.00 0.00 0.00 41 1009.5
20260507013114 77 360 0.0 0.0 0.00 0.00 0.00 41 1009.3
20260507011600 78 360 0.0 0.0 0.00 0.00 0.00 41 1009.1
20260507010059 78 360 0.0 0.0 0.00 0.00 0.00 42 1008.9
20260507004558 78 360 0.0 0.0 0.00 0.00 0.00 40 1008.8
20260507003056 78 360 0.0 0.0 0.00 0.00 0.00 40 1008.7
20260507001614 79 360 0.0 0.0 0.00 0.00 0.00 39 1008.6
20260507000058 80 360 0.0 0.0 0.00 0.00 0.00 39 1008.5
20260506234554 80 360 0.0 0.0 0.00 0.00 0.00 39 1008.4
20260506233054 80 360 0.0 0.0 0.00 0.00 0.00 40 1008.3
20260506231523 80 360 0.0 0.0 0.00 0.00 0.00 41 1008.4
20260506230020 81 360 0.0 0.0 0.00 0.00 0.00 39 1008.5
20260506224516 81 360 0.0 0.0 0.00 0.00 0.00 40 1008.7
20260506223014 81 360 0.0 0.0 0.00 0.00 0.00 40 1008.8
20260506221512 80 360 0.0 0.0 0.00 0.00 0.00 41 1009.0
20260506220012 80 360 0.0 0.0 0.00 0.00 0.00 41 1009.1
20260506214507 81 360 0.0 0.0 0.00 0.00 0.00 41 1009.3
20260506213010 81 360 0.0 0.0 0.00 0.00 0.00 39 1009.4
20260506211505 81 360 0.0 0.0 0.00 0.00 0.00 39 1009.6
20260506210004 81 360 0.0 0.0 0.00 0.00 0.00 40 1009.6
20260506204558 81 360 0.0 0.0 0.00 0.00 0.00 41 1009.7
20260506203102 80 360 0.0 0.0 0.00 0.00 0.00 41 1009.8
20260506201556 79 360 0.0 0.0 0.00 0.00 0.00 41 1010.0
20260506200135 79 360 0.0 0.0 0.00 0.00 0.00 43 1010.2
20260506194548 78 360 0.0 0.0 0.00 0.00 0.00 42 1010.4
20260506193046 78 360 0.0 0.0 0.00 0.00 0.00 43 1010.5
20260506191546 77 360 0.0 0.0 0.00 0.00 0.00 43 1010.5
20260506190042 77 360 0.0 0.0 0.00 0.00 0.00 46 1010.5
20260506184536 76 360 0.0 0.0 0.00 0.00 0.00 46 1010.7
20260506183035 74 360 0.0 0.0 0.00 0.00 0.00 49 1010.8
20260506181535 74 360 0.0 0.0 0.00 0.00 0.00 49 1011.2
20260506180035 74 360 0.0 0.0 0.00 0.00 0.00 50 1011.5
20260506174523 72 360 0.0 0.0 0.00 0.00 0.00 51 1011.6
20260506173017 71 360 0.0 0.0 0.00 0.00 0.00 53 1011.7
20260506171523 71 360 0.0 0.0 0.00 0.00 0.00 53 1011.9
20260506170009 70 360 0.0 0.0 0.00 0.00 0.00 54 1012.0
20260506164500 69 360 0.0 0.0 0.00 0.00 0.00 55 1012.1
20260506163106 68 360 0.0 0.0 0.00 0.00 0.00 57 1012.1
20260506161557 68 360 0.0 0.0 0.00 0.00 0.00 59 1012.1
20260506160059 67 360 0.0 0.0 0.00 0.00 0.00 60 1012.0
20260506154543 66 360 0.0 0.0 0.00 0.00 0.00 62 1012.2
20260506153043 65 360 0.0 0.0 0.00 0.00 0.00 65 1012.3
20260506151535 64 360 0.0 0.0 0.00 0.00 0.00 66 1012.4
20260506150033 63 360 0.0 0.0 0.00 0.00 0.00 68 1012.3
20260506144526 62 360 0.0 0.0 0.00 0.00 0.00 70 1012.2
20260506143020 62 360 0.0 0.0 0.00 0.00 0.00 71 1012.2
20260506141517 61 360 0.0 0.0 0.00 0.00 0.00 72 1012.1
20260506140018 60 360 0.0 0.0 0.00 0.00 0.00 72 1012.0
20260506134519 60 360 0.0 0.0 0.00 0.00 0.00 74 1011.7
20260506133004 59 360 0.0 0.0 0.00 0.00 0.00 74 1011.6
20260506131612 59 360 0.0 0.0 0.00 0.00 0.00 75 1011.4
20260506131503 59 360 0.0 0.0 0.00 0.00 0.00 75 1011.4
20260506130059 59 360 0.0 0.0 0.00 0.00 0.00 75 1011.3
20260506124554 59 360 0.0 0.0 0.00 0.00 0.00 75 1011.1
20260506123053 59 360 0.0 0.0 0.00 0.00 0.00 75 1011.0
20260506121554 59 360 0.0 0.0 0.00 0.00 0.00 75 1010.8
20260506120049 59 360 0.0 0.0 0.00 0.00 0.00 75 1010.7